ARIANE 2 DEB, 33578

Orbit data source: Space-Track

ARIANE 2 DEB, 33578 is space debris in HEO originally from a launch on Fri, 27 Jan 1989 UTC launched from the French Guiana (FRGUI). Debris objects in space refer to the collection of defunct objects orbiting the Earth. Examples of debris include non-operational satellites, rocket bodies, and fragments generated from explosions, collisions, or faulty payload assembly.

Loading next visibility...
Identifier
33578, 1989-006BW
Orbit
HEO
Country
Flag of FRFR
Related business
Manufacturer
EADS/LV
Mission
Spacecraft
Bus & Motor
Unknown
Mass
Unknown
Launch date (UTC)
1989-01-27 (37 years ago)
Launch vehicle
Unknown
Launch site
French Guiana (FRGUI)
Object type
Payload
Rocket body
Debris
Shape & HBR
Unknown shape, 0.2 m
Radar Cross Section
Medium (>0.1 m² and <1 m²)

Expand to show TLE details & history
Last TLE update: 3 days ago

TLE from 3 days ago
0 ARIANE 2 DEB
1 33578U 89006BW  26171.16161992  .00000073  00000-0  15112-2 0  9993
2 33578   8.4355  20.3324 7143475 186.7046 152.1724  2.31141556165226
Epoch: 2026-06-20T03:52Z
TLE epoch observation values (Epoch: 2026-06-20T03:52:43.961Z)
Latitude
0.00005°
Longitude
53.78194°
Altitude
34,325.473 km
Speed
1.758 km/s
True Right ascension
01h 21m 22s
True Declination
0° 00' 00"
Sunlit
Object was in daylight at epoch
Visualization orbit readout
Latitude
Unknown
Longitude
Unknown
Altitude
Unknown
Speed
Unknown
Apparent Right ascension
Unknown
Apparent Declination
Unknown
Sunlit
N/A
Visualization observer readout
Local Sidereal Time
07:12:05
Azimuth
Unknown
Elevation
Unknown
Doppler factor
Unknown
Orbital elements
Apogee altitude
35,054.394 km
Perigee altitude
525.543 km
Semi-major axis
24,168.105 km
Eccentricity
0.71435
Inclination
8.4355°
RAAN
20.3324°
Arg. of periapsis
186.7046°
True anomaly
173.29887°
Mean anomaly
152.1724°
Eccentric anomaly
163.67617°
Mean motion
0.57767 °/min
Orbital period
623.19 mins
BSTAR
0.0015112
Loading maneuver chart data...
Computing Atmospheric mass density...
Loading historical data...
Loading historical data...
Loading historical data...
Loading historical data...
Loading historical data...
Loading historical data...
Loading historical data...

Documentation

Showing up to 5 results
|